Regional Weather Roundup
Issued by NWS

Home | Current Version | Previous Version | Graphics & Text | Print | Product List | Glossary On
Versions: 1 2 3 4 5 6 7 8 9 10 11 12 13 14 15 16 17 18 19 20 21 22 23 24 25 26 27 28 29 30 31 32 33 34 35 36 37 38 39 40 41 42 43 44 45 46 47 48 49 50
000
ASUS43 KOAX 241510
RWRNE

WEATHER ROUNDUP FOR NEBRASKA
NATIONAL WEATHER SERVICE OMAHA NE
1000 AM CDT THU MAY 24 2018

NOTES: SATELLITE DATA IS BEING USED TO AUGMENT CLOUD COVER ABOVE
       12000 FEET.
       "FAIR" INDICATES FEW OR NO CLOUDS BELOW 12,000 FEET WITH NO
       SIGNIFICANT WEATHER AND/OR OBSTRUCTIONS TO VISIBILITY.


NEZ001>004-019>022-054>056-241600-
NEBRASKA PANHANDLE

CITY           SKY/WX    TMP DP  RH WIND       PRES   REMARKS
SCOTTSBLUFF    SUNNY     65  52  62 NW9       30.05R
ALLIANCE       SUNNY     68  58  70 SW6       30.03S
CHADRON        SUNNY     70  54  56 SW16      29.97S
GORDON         FAIR      67  58  73 SW12G17   30.00R
KIMBALL        SUNNY     67  52  58 W10       30.10S
SIDNEY         SUNNY     66  56  70 NW7       30.06F
$$

NEZ057>060-069>072-079>082-241600-
SOUTHWEST NEBRASKA

CITY           SKY/WX    TMP DP  RH WIND       PRES   REMARKS
NORTH PLATTE   SUNNY     73  61  65 S6        29.98F
IMPERIAL       SUNNY     71  56  58 VRB3      29.99F
LEXINGTON      SUNNY     71  61  71 SE13      29.99F
MCCOOK         SUNNY     70  59  68 VRB7      29.98F
OGALLALA       MOSUNNY   66  60  81 CALM      30.00S
$$

NEZ005>010-023>029-035>040-094-241600-
NORTH CENTRAL NEBRASKA

CITY           SKY/WX    TMP DP  RH WIND       PRES   REMARKS
VALENTINE      MOSUNNY   72  60  66 S9        29.96F
AINSWORTH      MOSUNNY   70  61  73 S17       29.96S
BROKEN BOW     SUNNY     71  63  75 SE12      29.99S
O`NEILL        PTSUNNY   75  63  67 SE12      29.98F
ORD            MOSUNNY   73  62  68 SE14G20   29.96F
THEDFORD       MOSUNNY   69  61  75 S10       29.99R
$$

NEZ041-046>049-061>064-073>077-083>087-241600-
SOUTH CENTRAL NEBRASKA

CITY           SKY/WX    TMP DP  RH WIND       PRES   REMARKS
GRAND ISLAND   SUNNY     74  63  68 SE13      30.01F
AURORA         MOSUNNY   74  64  70 S13       30.02F
HASTINGS       MOSUNNY   73  62  68 SE12G21   30.02F
HEBRON         SUNNY     79  60  52 S8        30.03S
HOLDREGE       SUNNY     71  60  68 SE12      30.00F
KEARNEY        SUNNY     72  60  66 SE14      30.01F
YORK           CLOUDY    75  66  73 S14       30.02F
$$

NEZ011>018-030>034-042>045-241600-
NORTHEAST NEBRASKA

CITY           SKY/WX    TMP DP  RH WIND       PRES   REMARKS
NORFOLK        SUNNY     76  66  71 SE12      29.99F
ALBION         MOSUNNY   75  67  77 SE12      30.00F
BLAIR          CLOUDY    75  67  76 SE9       30.04F
COLUMBUS       MOSUNNY   75  64  68 S10       30.02F
FREMONT        CLOUDY    76  66  72 S9        30.04F
TEKAMAH        CLOUDY    74  67  78 S8        30.03F
WAYNE          PTSUNNY   75  74  96 S9        30.01F
$$

NEZ050>053-065>068-078-088>093-241600-
SOUTHEAST NEBRASKA

CITY           SKY/WX    TMP DP  RH WIND       PRES   REMARKS
LINCOLN        SUNNY     77  65  66 S8        30.04F
OMAHA EPPLEY   CLOUDY    76  66  71 S12       30.04F
BEATRICE       SUNNY     79  66  64 S10G16    30.04F
FALLS CITY     SUNNY     79  67  66 S10G20    30.06S
NEBRASKA CITY  CLOUDY    77  70  78 S6        30.06F
PLATTSMOUTH    CLOUDY    76  67  75 S10       30.05F
$$

NEZ044-045-051>053-067-241600-
OMAHA AREA

CITY           SKY/WX    TMP DP  RH WIND       PRES   REMARKS
OMAHA EPPLEY   CLOUDY    76  66  71 S12       30.04F
BLAIR          CLOUDY    75  67  76 SE9       30.04F
FREMONT        CLOUDY    76  66  72 S9        30.04F
MILLARD        CLOUDY    76  68  76 SE10      30.03F
OFFUTT AFB     CLOUDY    75  68  77 S6        30.04F
PLATTSMOUTH    CLOUDY    76  67  75 S10       30.05F
WAHOO          FAIR      77  64  64 S13       30.04S
$$



USA.gov is the U.S. government's official web portal to all federal, state and local government web resources and services.